Time,TemperatureF,DewpointF,PressureIn,WindDirection,WindDirectionDegrees,WindSpeedMPH,WindSpeedGustMPH,Humidity,HourlyPrecipIn,Conditions,Clouds,dailyrainin,SoftwareType,DateUTC
2013-03-26 00:00:00,41.5,25.7,30.24,North,351,3.0,6.0,53,0.00,,---,0.00,VWS V14.01,2013-03-26 05:00:00,
2013-03-26 00:01:00,43.6,25.2,30.22,North,355,0.0,0.0,48,0.00,,---,0.00,VWS V14.01,2013-03-26 05:01:00,
2013-03-26 00:06:00,43.3,25.4,30.22,North,355,0.0,1.0,49,0.00,,---,0.00,VWS V14.01,2013-03-26 05:06:00,
2013-03-26 00:11:00,43.1,25.7,30.22,NNW,348,0.0,4.0,50,0.00,,---,0.00,VWS V14.01,2013-03-26 05:11:00,
2013-03-26 00:15:00,41.6,25.3,30.24,North,351,0.0,6.0,52,0.00,,---,0.00,VWS V14.01,2013-03-26 05:15:00,
2013-03-26 00:16:00,42.8,25.5,30.23,North,5,0.0,3.0,50,0.00,,---,0.00,VWS V14.01,2013-03-26 05:16:00,
2013-03-26 00:21:00,42.6,25.8,30.23,NNW,342,0.0,6.0,51,0.00,,---,0.00,VWS V14.01,2013-03-26 05:21:00,
2013-03-26 00:27:00,42.5,25.7,30.23,NW,307,0.0,6.0,51,0.00,,---,0.00,VWS V14.01,2013-03-26 05:27:00,
2013-03-26 00:30:00,41.6,25.3,30.24,North,5,3.0,6.0,52,0.00,,---,0.00,VWS V14.01,2013-03-26 05:30:00,
2013-03-26 00:32:00,42.3,25.5,30.23,NW,311,0.0,3.0,51,0.00,,---,0.00,VWS V14.01,2013-03-26 05:32:00,
2013-03-26 00:37:00,42.2,25.9,30.23,North,5,0.0,4.0,52,0.00,,---,0.00,VWS V14.01,2013-03-26 05:37:00,
2013-03-26 00:42:00,41.9,26.0,30.23,NNE,13,0.0,4.0,53,0.00,,---,0.00,VWS V14.01,2013-03-26 05:42:00,
2013-03-26 00:45:00,41.6,24.4,30.25,NNE,12,2.0,10.0,50,0.00,,---,0.00,VWS V14.01,2013-03-26 05:45:00,
2013-03-26 00:47:00,41.8,25.9,30.23,North,355,0.0,3.0,53,0.00,,---,0.00,VWS V14.01,2013-03-26 05:47:00,
2013-03-26 00:52:00,41.6,25.8,30.23,North,355,1.0,3.0,53,0.00,,---,0.00,VWS V14.01,2013-03-26 05:52:00,
2013-03-26 00:57:00,41.5,25.7,30.23,North,360,4.0,4.0,53,0.00,,---,0.00,VWS V14.01,2013-03-26 05:57:00,
2013-03-26 01:00:00,41.2,24.5,30.25,NNE,22,4.0,6.0,51,0.00,,---,0.00,VWS V14.01,2013-03-26 06:00:00,
2013-03-26 01:02:00,41.5,25.7,30.24,North,5,2.0,5.0,53,0.00,,---,0.00,VWS V14.01,2013-03-26 06:02:00,
2013-03-26 01:07:00,41.5,25.7,30.24,North,349,5.0,6.0,53,0.00,,---,0.00,VWS V14.01,2013-03-26 06:07:00,
2013-03-26 01:12:00,41.6,25.3,30.24,NNE,12,2.0,6.0,52,0.00,,---,0.00,VWS V14.01,2013-03-26 06:12:00,
2013-03-26 01:15:00,40.9,25.1,30.25,North,360,4.0,10.0,53,0.00,,---,0.00,VWS V14.01,2013-03-26 06:15:00,
2013-03-26 01:17:00,41.6,24.8,30.24,North,5,3.0,6.0,51,0.00,,---,0.00,VWS V14.01,2013-03-26 06:17:00,
2013-03-26 01:22:00,41.6,24.8,30.24,North,9,3.0,6.0,51,0.00,,---,0.00,VWS V14.01,2013-03-26 06:22:00,
2013-03-26 01:27:00,41.6,25.3,30.24,North,5,2.0,6.0,52,0.00,,---,0.00,VWS V14.01,2013-03-26 06:27:00,
2013-03-26 01:30:00,40.5,24.7,30.26,NNW,347,7.0,11.0,53,0.00,,---,0.00,VWS V14.01,2013-03-26 06:30:00,
2013-03-26 01:32:00,41.6,24.8,30.24,NNE,13,1.0,10.0,51,0.00,,---,0.00,VWS V14.01,2013-03-26 06:32:00,
2013-03-26 01:38:00,41.6,24.8,30.24,North,11,2.0,10.0,51,0.00,,---,0.00,VWS V14.01,2013-03-26 06:38:00,
2013-03-26 01:43:00,41.6,24.4,30.24,North,10,0.0,10.0,50,0.00,,---,0.00,VWS V14.01,2013-03-26 06:43:00,
2013-03-26 01:45:00,40.6,23.9,30.26,NNE,28,0.0,15.0,51,0.00,,---,0.00,VWS V14.01,2013-03-26 06:45:00,
2013-03-26 01:48:00,41.5,24.7,30.25,NE,36,5.0,6.0,51,0.00,,---,0.00,VWS V14.01,2013-03-26 06:48:00,
2013-03-26 01:53:00,41.3,24.5,30.25,NNE,13,4.0,6.0,51,0.00,,---,0.00,VWS V14.01,2013-03-26 06:53:00,
2013-03-26 01:58:00,41.2,24.5,30.25,NNE,19,6.0,6.0,51,0.00,,---,0.00,VWS V14.01,2013-03-26 06:58:00,
2013-03-26 02:00:00,40.1,24.8,30.26,North,11,4.0,11.0,54,0.00,,---,0.00,VWS V14.01,2013-03-26 07:00:00,
2013-03-26 02:03:00,41.2,24.9,30.25,NNE,14,2.0,7.0,52,0.00,,---,0.00,VWS V14.01,2013-03-26 07:03:00,
2013-03-26 02:08:00,41.1,24.8,30.25,NNE,19,5.0,10.0,52,0.00,,---,0.00,VWS V14.01,2013-03-26 07:08:00,
2013-03-26 02:13:00,40.9,25.1,30.25,North,11,2.0,10.0,53,0.00,,---,0.00,VWS V14.01,2013-03-26 07:13:00,
2013-03-26 02:15:00,39.2,25.3,30.27,North,5,3.0,7.0,57,0.00,,---,0.00,VWS V14.01,2013-03-26 07:15:00,
2013-03-26 02:18:00,40.8,25.0,30.25,North,360,2.0,7.0,53,0.00,,---,0.00,VWS V14.01,2013-03-26 07:18:00,
2013-03-26 02:23:00,40.5,24.7,30.25,NNE,17,10.0,10.0,53,0.00,,---,0.00,VWS V14.01,2013-03-26 07:23:00,
2013-03-26 02:28:00,40.5,24.7,30.26,NNE,13,7.0,11.0,53,0.00,,---,0.00,VWS V14.01,2013-03-26 07:28:00,
2013-03-26 02:30:00,38.8,25.3,30.27,North,10,4.0,9.0,58,0.00,,---,0.00,VWS V14.01,2013-03-26 07:30:00,
2013-03-26 02:33:00,40.5,24.3,30.26,North,5,4.0,13.0,52,0.00,,---,0.00,VWS V14.01,2013-03-26 07:33:00,
2013-03-26 02:38:00,40.6,24.8,30.26,NNE,17,3.0,15.0,53,0.00,,---,0.00,VWS V14.01,2013-03-26 07:38:00,
2013-03-26 02:43:00,40.6,23.9,30.26,NNE,30,7.0,15.0,51,0.00,,---,0.00,VWS V14.01,2013-03-26 07:43:00,
2013-03-26 02:45:00,38.5,25.4,30.27,NNE,18,5.0,10.0,59,0.00,,---,0.00,VWS V14.01,2013-03-26 07:45:00,
2013-03-26 02:48:00,40.5,24.3,30.26,North,355,0.0,11.0,52,0.00,,---,0.00,VWS V14.01,2013-03-26 07:48:00,
2013-03-26 02:53:00,40.3,24.5,30.26,NNE,14,1.0,11.0,53,0.00,,---,0.00,VWS V14.01,2013-03-26 07:53:00,
2013-03-26 02:59:00,40.1,24.8,30.26,NNE,26,4.0,11.0,54,0.00,,---,0.00,VWS V14.01,2013-03-26 07:59:00,
2013-03-26 03:00:00,38.5,25.4,30.28,North,5,4.0,12.0,59,0.00,,---,0.00,VWS V14.01,2013-03-26 08:00:00,
2013-03-26 03:04:00,39.8,25.0,30.26,NNE,17,4.0,6.0,55,0.00,,---,0.00,VWS V14.01,2013-03-26 08:04:00,
2013-03-26 03:09:00,39.5,25.1,30.26,North,9,1.0,6.0,56,0.00,,---,0.00,VWS V14.01,2013-03-26 08:09:00,
2013-03-26 03:14:00,39.2,25.3,30.27,North,5,2.0,3.0,57,0.00,,---,0.00,VWS V14.01,2013-03-26 08:14:00,
2013-03-26 03:15:00,38.0,25.4,30.28,North,355,2.0,7.0,60,0.00,,---,0.00,VWS V14.01,2013-03-26 08:15:00,
2013-03-26 03:19:00,38.9,25.0,30.27,NNE,15,3.0,5.0,57,0.00,,---,0.00,VWS V14.01,2013-03-26 08:19:00,
2013-03-26 03:24:00,38.9,25.0,30.27,NNE,23,6.0,9.0,57,0.00,,---,0.00,VWS V14.01,2013-03-26 08:24:00,
2013-03-26 03:29:00,38.8,25.3,30.27,North,9,3.0,5.0,58,0.00,,---,0.00,VWS V14.01,2013-03-26 08:29:00,
2013-03-26 03:30:00,37.9,24.9,30.28,NNE,22,7.0,14.0,59,0.00,,---,0.00,VWS V14.01,2013-03-26 08:30:00,
2013-03-26 03:34:00,38.8,25.3,30.27,North,355,4.0,10.0,58,0.00,,---,0.00,VWS V14.01,2013-03-26 08:34:00,
2013-03-26 03:39:00,38.6,25.5,30.27,North,355,3.0,10.0,59,0.00,,---,0.00,VWS V14.01,2013-03-26 08:39:00,
2013-03-26 03:44:00,38.5,25.4,30.27,North,349,3.0,7.0,59,0.00,,---,0.00,VWS V14.01,2013-03-26 08:44:00,
2013-03-26 03:45:00,37.5,24.5,30.28,NNE,13,2.0,9.0,59,0.00,,---,0.00,VWS V14.01,2013-03-26 08:45:00,
2013-03-26 03:49:00,38.5,25.0,30.27,NNE,14,3.0,12.0,58,0.00,,---,0.00,VWS V14.01,2013-03-26 08:49:00,
2013-03-26 03:54:00,38.5,25.0,30.27,NNW,347,5.0,12.0,58,0.00,,---,0.00,VWS V14.01,2013-03-26 08:54:00,
2013-03-26 03:59:00,38.3,24.8,30.28,NE,35,2.0,5.0,58,0.00,,---,0.00,VWS V14.01,2013-03-26 08:59:00,
2013-03-26 04:00:00,37.0,24.8,30.28,NNE,22,0.0,4.0,61,0.00,,---,0.00,VWS V14.01,2013-03-26 09:00:00,
2013-03-26 04:04:00,38.3,25.2,30.28,North,360,3.0,7.0,59,0.00,,---,0.00,VWS V14.01,2013-03-26 09:04:00,
2013-03-26 04:09:00,38.0,25.0,30.28,North,5,4.0,7.0,59,0.00,,---,0.00,VWS V14.01,2013-03-26 09:09:00,
2013-03-26 04:15:00,38.0,25.4,30.28,NNW,338,3.0,7.0,60,0.00,,---,0.00,VWS V14.01,2013-03-26 09:15:00,
2013-03-26 04:20:00,37.9,24.9,30.28,North,360,8.0,10.0,59,0.00,,---,0.00,VWS V14.01,2013-03-26 09:20:00,
2013-03-26 04:25:00,37.9,24.9,30.28,NNW,346,11.0,14.0,59,0.00,,---,0.00,VWS V14.01,2013-03-26 09:25:00,
2013-03-26 04:30:00,37.9,24.9,30.28,NNE,18,4.0,7.0,59,0.00,,---,0.00,VWS V14.01,2013-03-26 09:30:00,
2013-03-26 04:35:00,37.8,24.8,30.28,NNE,13,2.0,9.0,59,0.00,,---,0.00,VWS V14.01,2013-03-26 09:35:00,
2013-03-26 04:40:00,37.6,24.6,30.28,North,10,4.0,9.0,59,0.00,,---,0.00,VWS V14.01,2013-03-26 09:40:00,
2013-03-26 04:45:00,37.5,24.5,30.28,NNE,13,0.0,4.0,59,0.00,,---,0.00,VWS V14.01,2013-03-26 09:45:00,
2013-03-26 04:50:00,37.3,24.3,30.28,NNE,22,0.0,4.0,59,0.00,,---,0.00,VWS V14.01,2013-03-26 09:50:00,
2013-03-26 04:55:00,37.2,25.0,30.28,NNE,21,0.0,4.0,61,0.00,,---,0.00,VWS V14.01,2013-03-26 09:55:00,
2013-03-26 05:00:00,36.9,25.1,30.28,NNE,22,0.0,0.0,62,0.00,,---,0.00,VWS V14.01,2013-03-26 10:00:00,
2013-03-26 05:05:00,36.6,24.8,30.28,NNE,22,0.0,0.0,62,0.00,,---,0.00,VWS V14.01,2013-03-26 10:05:00,
2013-03-26 05:10:00,36.2,25.2,30.28,NNE,22,0.0,0.0,64,0.00,,---,0.00,VWS V14.01,2013-03-26 10:10:00,
2013-03-26 05:15:00,35.9,24.9,30.28,NNE,21,0.0,0.0,64,0.00,,---,0.00,VWS V14.01,2013-03-26 10:15:00,
2013-03-26 05:20:00,35.6,24.6,30.28,NNE,22,2.0,2.0,64,0.00,,---,0.00,VWS V14.01,2013-03-26 10:20:00,
2013-03-26 05:25:00,35.3,24.7,30.28,NNE,22,0.0,2.0,65,0.00,,---,0.00,VWS V14.01,2013-03-26 10:25:00,
2013-03-26 05:30:00,32.4,25.0,30.30,NNE,22,0.0,0.0,74,0.00,,---,0.00,VWS V14.01,2013-03-26 10:30:00,
2013-03-26 05:31:00,35.0,25.2,30.28,NNE,22,0.0,0.0,67,0.00,,---,0.00,VWS V14.01,2013-03-26 10:31:00,
2013-03-26 05:36:00,34.9,25.4,30.28,NNE,22,0.0,0.0,68,0.00,,---,0.00,VWS V14.01,2013-03-26 10:36:00,
2013-03-26 05:41:00,34.7,25.6,30.28,NNE,21,0.0,0.0,69,0.00,,---,0.00,VWS V14.01,2013-03-26 10:41:00,
2013-03-26 05:45:00,31.8,25.7,30.30,NNE,22,0.0,0.0,78,0.00,,---,0.00,VWS V14.01,2013-03-26 10:45:00,
2013-03-26 05:46:00,34.4,25.0,30.28,NNE,22,0.0,0.0,68,0.00,,---,0.00,VWS V14.01,2013-03-26 10:46:00,
2013-03-26 05:51:00,34.1,25.0,30.28,NNE,22,0.0,0.0,69,0.00,,---,0.00,VWS V14.01,2013-03-26 10:51:00,
2013-03-26 05:56:00,33.8,25.1,30.28,NNE,22,0.0,0.0,70,0.00,,---,0.00,VWS V14.01,2013-03-26 10:56:00,
2013-03-26 06:00:00,31.3,26.2,30.31,NNE,22,0.0,0.0,81,0.00,,---,0.00,VWS V14.01,2013-03-26 11:00:00,
2013-03-26 06:01:00,33.5,24.8,30.29,NNE,22,0.0,0.0,70,0.00,,---,0.00,VWS V14.01,2013-03-26 11:01:00,
2013-03-26 06:06:00,33.4,25.4,30.29,NNE,22,0.0,0.0,72,0.00,,---,0.00,VWS V14.01,2013-03-26 11:06:00,
2013-03-26 06:11:00,33.1,25.4,30.29,NNE,22,0.0,0.0,73,0.00,,---,0.00,VWS V14.01,2013-03-26 11:11:00,
2013-03-26 06:15:00,30.9,26.4,30.32,NNE,21,0.0,0.0,83,0.00,,---,0.00,VWS V14.01,2013-03-26 11:15:00,
2013-03-26 06:16:00,32.9,25.5,30.29,NNE,22,0.0,0.0,74,0.00,,---,0.00,VWS V14.01,2013-03-26 11:16:00,
2013-03-26 06:22:00,32.7,25.3,30.29,NNE,22,0.0,0.0,74,0.00,,---,0.00,VWS V14.01,2013-03-26 11:22:00,
2013-03-26 06:27:00,32.5,25.1,30.29,NNE,22,0.0,0.0,74,0.00,,---,0.00,VWS V14.01,2013-03-26 11:27:00,
2013-03-26 06:30:00,30.7,26.5,30.32,NNE,21,0.0,0.0,84,0.00,,---,0.00,VWS V14.01,2013-03-26 11:30:00,
2013-03-26 06:32:00,32.2,25.2,30.30,NNE,22,0.0,0.0,75,0.00,,---,0.00,VWS V14.01,2013-03-26 11:32:00,
2013-03-26 06:37:00,32.1,25.4,30.30,NNE,22,0.0,0.0,76,0.00,,---,0.00,VWS V14.01,2013-03-26 11:37:00,
2013-03-26 06:42:00,31.9,25.8,30.30,NNE,22,0.0,0.0,78,0.00,,---,0.00,VWS V14.01,2013-03-26 11:42:00,
2013-03-26 06:45:00,31.0,26.7,30.33,NNE,21,0.0,0.0,84,0.00,,---,0.00,VWS V14.01,2013-03-26 11:45:00,
2013-03-26 06:47:00,31.8,26.0,30.30,NNE,21,0.0,0.0,79,0.00,,---,0.00,VWS V14.01,2013-03-26 11:47:00,
2013-03-26 06:52:00,31.6,26.1,30.30,NNE,22,0.0,0.0,80,0.00,,---,0.00,VWS V14.01,2013-03-26 11:52:00,
2013-03-26 06:57:00,31.3,26.2,30.30,NNE,22,0.0,0.0,81,0.00,,---,0.00,VWS V14.01,2013-03-26 11:57:00,
2013-03-26 07:00:00,31.9,27.6,30.33,NNE,22,0.0,1.0,84,0.00,,---,0.00,VWS V14.01,2013-03-26 12:00:00,
2013-03-26 07:02:00,31.2,26.4,30.31,NNE,21,0.0,0.0,82,0.00,,---,0.00,VWS V14.01,2013-03-26 12:02:00,
2013-03-26 07:07:00,31.0,26.5,30.31,NNE,22,0.0,0.0,83,0.00,,---,0.00,VWS V14.01,2013-03-26 12:07:00,
2013-03-26 07:12:00,30.9,26.4,30.31,NNE,22,0.0,0.0,83,0.00,,---,0.00,VWS V14.01,2013-03-26 12:12:00,
2013-03-26 07:15:00,33.2,28.3,30.34,NNE,22,1.0,1.0,82,0.00,,---,0.00,VWS V14.01,2013-03-26 12:15:00,
2013-03-26 07:17:00,30.9,26.6,30.32,NNE,22,0.0,0.0,84,0.00,,---,0.00,VWS V14.01,2013-03-26 12:17:00,
2013-03-26 07:22:00,30.7,26.5,30.32,NNE,21,0.0,0.0,84,0.00,,---,0.00,VWS V14.01,2013-03-26 12:22:00,
2013-03-26 07:27:00,30.7,26.2,30.32,NNE,21,0.0,0.0,83,0.00,,---,0.00,VWS V14.01,2013-03-26 12:27:00,
2013-03-26 07:30:00,35.9,28.1,30.34,North,355,0.0,3.0,73,0.00,,---,0.00,VWS V14.01,2013-03-26 12:30:00,
2013-03-26 07:32:00,30.7,26.5,30.32,NNE,21,0.0,0.0,84,0.00,,---,0.00,VWS V14.01,2013-03-26 12:32:00,
2013-03-26 07:38:00,30.7,26.5,30.32,NNE,22,0.0,0.0,84,0.00,,---,0.00,VWS V14.01,2013-03-26 12:38:00,
2013-03-26 07:43:00,31.0,26.7,30.32,NNE,22,0.0,0.0,84,0.00,,---,0.00,VWS V14.01,2013-03-26 12:43:00,
2013-03-26 07:45:00,38.2,28.2,30.35,North,350,6.0,6.0,67,0.00,,---,0.00,VWS V14.01,2013-03-26 12:45:00,
2013-03-26 07:48:00,31.3,27.0,30.33,NNE,22,0.0,0.0,84,0.00,,---,0.00,VWS V14.01,2013-03-26 12:48:00,
2013-03-26 07:53:00,31.6,27.3,30.33,NNE,22,0.0,0.0,84,0.00,,---,0.00,VWS V14.01,2013-03-26 12:53:00,
2013-03-26 07:58:00,31.8,27.5,30.33,NNE,22,0.0,1.0,84,0.00,,---,0.00,VWS V14.01,2013-03-26 12:58:00,
2013-03-26 08:00:00,39.9,26.8,30.35,NW,321,4.0,6.0,59,0.00,,---,0.00,VWS V14.01,2013-03-26 13:00:00,
2013-03-26 08:03:00,32.2,27.9,30.33,NNE,22,0.0,0.0,84,0.00,,---,0.00,VWS V14.01,2013-03-26 13:03:00,
2013-03-26 08:08:00,32.7,28.4,30.33,NNE,22,0.0,0.0,84,0.00,,---,0.00,VWS V14.01,2013-03-26 13:08:00,
2013-03-26 08:13:00,33.2,28.3,30.34,NNE,22,0.0,1.0,82,0.00,,---,0.00,VWS V14.01,2013-03-26 13:13:00,
2013-03-26 08:15:00,40.8,25.0,30.36,NNW,339,0.0,11.0,53,0.00,,---,0.00,VWS V14.01,2013-03-26 13:15:00,
2013-03-26 08:18:00,34.1,28.3,30.34,NNE,22,0.0,2.0,79,0.00,,---,0.00,VWS V14.01,2013-03-26 13:18:00,
2013-03-26 08:23:00,35.0,28.5,30.34,NNE,22,2.0,2.0,77,0.00,,---,0.00,VWS V14.01,2013-03-26 13:23:00,
2013-03-26 08:28:00,35.9,28.1,30.34,North,355,0.0,3.0,73,0.00,,---,0.00,VWS V14.01,2013-03-26 13:28:00,
2013-03-26 08:30:00,42.1,24.8,30.36,NNW,338,5.0,12.0,50,0.00,,---,0.00,VWS V14.01,2013-03-26 13:30:00,
2013-03-26 08:33:00,36.8,28.3,30.34,North,355,2.0,3.0,71,0.00,,---,0.00,VWS V14.01,2013-03-26 13:33:00,
2013-03-26 08:38:00,37.5,27.9,30.34,West,277,2.0,4.0,68,0.00,,---,0.00,VWS V14.01,2013-03-26 13:38:00,
2013-03-26 08:43:00,38.2,28.2,30.35,NNW,334,3.0,4.0,67,0.00,,---,0.00,VWS V14.01,2013-03-26 13:43:00,
2013-03-26 08:45:00,42.6,21.1,30.36,NNW,344,5.0,16.0,42,0.00,,---,0.00,VWS V14.01,2013-03-26 13:45:00,
2013-03-26 08:49:00,38.9,27.4,30.35,NW,318,2.0,6.0,63,0.00,,---,0.00,VWS V14.01,2013-03-26 13:49:00,
2013-03-26 08:54:00,39.3,27.0,30.35,NNW,331,0.0,6.0,61,0.00,,---,0.00,VWS V14.01,2013-03-26 13:54:00,
2013-03-26 08:59:00,39.9,26.8,30.35,NW,321,4.0,6.0,59,0.00,,---,0.00,VWS V14.01,2013-03-26 13:59:00,
2013-03-26 09:00:00,42.8,22.4,30.36,NNE,19,14.0,16.0,44,0.00,,---,0.00,VWS V14.01,2013-03-26 14:00:00,
2013-03-26 09:04:00,40.2,26.6,30.35,NW,314,3.0,9.0,58,0.00,,---,0.00,VWS V14.01,2013-03-26 14:04:00,
2013-03-26 09:09:00,40.5,25.6,30.35,NW,319,5.0,9.0,55,0.00,,---,0.00,VWS V14.01,2013-03-26 14:09:00,
2013-03-26 09:14:00,40.8,25.0,30.36,NNW,347,2.0,3.0,53,0.00,,---,0.00,VWS V14.01,2013-03-26 14:14:00,
2013-03-26 09:15:00,43.8,24.4,30.36,North,5,9.0,15.0,46,0.00,,---,0.00,VWS V14.01,2013-03-26 14:15:00,
2013-03-26 09:19:00,41.3,25.0,30.36,North,5,5.0,11.0,52,0.00,,---,0.00,VWS V14.01,2013-03-26 14:19:00,
2013-03-26 09:24:00,41.6,24.4,30.36,NNE,15,3.0,12.0,50,0.00,,---,0.00,VWS V14.01,2013-03-26 14:24:00,
2013-03-26 09:29:00,42.1,24.8,30.36,NW,326,5.0,5.0,50,0.00,,---,0.00,VWS V14.01,2013-03-26 14:29:00,
2013-03-26 09:30:00,44.6,23.5,30.36,NW,322,2.0,12.0,43,0.00,,---,0.00,VWS V14.01,2013-03-26 14:30:00,
2013-03-26 09:34:00,42.2,24.9,30.36,NW,317,2.0,10.0,50,0.00,,---,0.00,VWS V14.01,2013-03-26 14:34:00,
2013-03-26 09:39:00,42.5,25.2,30.36,NNE,26,11.0,13.0,50,0.00,,---,0.00,VWS V14.01,2013-03-26 14:39:00,
2013-03-26 09:44:00,42.6,22.8,30.36,NNW,343,5.0,7.0,45,0.00,,---,0.00,VWS V14.01,2013-03-26 14:44:00,
2013-03-26 09:45:00,45.2,24.0,30.36,NNW,345,2.0,12.0,43,0.00,,---,0.00,VWS V14.01,2013-03-26 14:45:00,
2013-03-26 09:49:00,42.5,22.7,30.36,NNW,341,9.0,16.0,45,0.00,,---,0.00,VWS V14.01,2013-03-26 14:49:00,
2013-03-26 09:54:00,42.6,23.3,30.36,NNE,14,12.0,16.0,46,0.00,,---,0.00,VWS V14.01,2013-03-26 14:54:00,
2013-03-26 09:59:00,42.8,22.4,30.36,NE,40,6.0,15.0,44,0.00,,---,0.00,VWS V14.01,2013-03-26 14:59:00,
2013-03-26 10:00:00,46.0,23.6,30.35,NNE,26,5.0,11.0,41,0.00,,---,0.00,VWS V14.01,2013-03-26 15:00:00,
2013-03-26 10:04:00,43.1,21.6,30.36,North,355,6.0,15.0,42,0.00,,---,0.00,VWS V14.01,2013-03-26 15:04:00,
2013-03-26 10:09:00,43.3,22.3,30.36,NW,312,6.0,15.0,43,0.00,,---,0.00,VWS V14.01,2013-03-26 15:09:00,
2013-03-26 10:14:00,43.9,23.4,30.36,NNE,30,7.0,12.0,44,0.00,,---,0.00,VWS V14.01,2013-03-26 15:14:00,
2013-03-26 10:15:00,46.0,24.8,30.35,NNW,347,0.0,13.0,43,0.00,,---,0.00,VWS V14.01,2013-03-26 15:15:00,
2013-03-26 10:20:00,44.5,24.0,30.36,NW,315,4.0,12.0,44,0.00,,---,0.00,VWS V14.01,2013-03-26 15:20:00,
2013-03-26 10:25:00,44.5,22.3,30.36,NNW,328,5.0,12.0,41,0.00,,---,0.00,VWS V14.01,2013-03-26 15:25:00,
2013-03-26 10:30:00,44.5,23.4,30.36,WNW,292,2.0,4.0,43,0.00,,---,0.00,VWS V14.01,2013-03-26 15:30:00,
2013-03-26 10:35:00,44.5,22.9,30.36,NW,317,4.0,9.0,42,0.00,,---,0.00,VWS V14.01,2013-03-26 15:35:00,
2013-03-26 10:40:00,44.9,24.3,30.36,NNE,22,7.0,12.0,44,0.00,,---,0.00,VWS V14.01,2013-03-26 15:40:00,
2013-03-26 10:45:00,45.2,24.6,30.36,NNW,333,3.0,5.0,44,0.00,,---,0.00,VWS V14.01,2013-03-26 15:45:00,
2013-03-26 10:50:00,45.7,25.0,30.36,North,5,7.0,11.0,44,0.00,,---,0.00,VWS V14.01,2013-03-26 15:50:00,
2013-03-26 10:55:00,45.7,24.5,30.36,North,9,6.0,11.0,43,0.00,,---,0.00,VWS V14.01,2013-03-26 15:55:00,
2013-03-26 11:00:00,45.8,22.3,30.35,ENE,70,0.0,5.0,39,0.00,,---,0.00,VWS V14.01,2013-03-26 16:00:00,
2013-03-26 11:05:00,46.0,25.3,30.35,NNW,327,5.0,13.0,44,0.00,,---,0.00,VWS V14.01,2013-03-26 16:05:00,
2013-03-26 11:10:00,46.0,24.2,30.35,West,260,5.0,13.0,42,0.00,,---,0.00,VWS V14.01,2013-03-26 16:10:00,
2013-03-26 11:15:00,46.0,22.5,30.35,NNW,347,1.0,2.0,39,0.00,,---,0.00,VWS V14.01,2013-03-26 16:15:00,
2013-03-26 11:20:00,46.1,23.1,30.35,NNE,26,6.0,14.0,40,0.00,,---,0.00,VWS V14.01,2013-03-26 16:20:00,
2013-03-26 11:25:00,46.4,25.7,30.35,WNW,294,4.0,14.0,44,0.00,,---,0.00,VWS V14.01,2013-03-26 16:25:00,
2013-03-26 11:30:00,46.5,26.3,30.35,North,360,7.0,7.0,45,0.00,,---,0.00,VWS V14.01,2013-03-26 16:30:00,
2013-03-26 11:35:00,47.4,26.6,30.35,North,5,5.0,14.0,44,0.00,,---,0.00,VWS V14.01,2013-03-26 16:35:00,
2013-03-26 11:40:00,47.7,24.6,30.35,West,281,8.0,14.0,40,0.00,,---,0.00,VWS V14.01,2013-03-26 16:40:00,
2013-03-26 11:45:00,47.7,26.3,30.35,NNW,332,5.0,12.0,43,0.00,,---,0.00,VWS V14.01,2013-03-26 16:45:00,
2013-03-26 11:51:00,47.9,24.8,30.35,NNE,19,5.0,13.0,40,0.00,,---,0.00,VWS V14.01,2013-03-26 16:51:00,
2013-03-26 11:56:00,48.6,24.2,30.35,North,350,6.0,13.0,38,0.00,,---,0.00,VWS V14.01,2013-03-26 16:56:00,
2013-03-26 12:00:00,50.2,25.6,30.33,North,351,7.0,13.0,38,0.00,,---,0.00,VWS V14.01,2013-03-26 17:00:00,
2013-03-26 12:01:00,48.6,24.2,30.34,NNW,331,7.0,14.0,38,0.00,,---,0.00,VWS V14.01,2013-03-26 17:01:00,
2013-03-26 12:06:00,48.5,22.8,30.34,NW,319,4.0,14.0,36,0.00,,---,0.00,VWS V14.01,2013-03-26 17:06:00,
2013-03-26 12:11:00,48.3,24.5,30.34,NNW,339,3.0,14.0,39,0.00,,---,0.00,VWS V14.01,2013-03-26 17:11:00,
2013-03-26 12:15:00,50.1,25.5,30.32,North,355,4.0,15.0,38,0.00,,---,0.00,VWS V14.01,2013-03-26 17:15:00,
2013-03-26 12:16:00,48.8,25.0,30.34,North,351,7.0,13.0,39,0.00,,---,0.00,VWS V14.01,2013-03-26 17:16:00,
2013-03-26 12:22:00,48.9,24.4,30.34,North,360,3.0,13.0,38,0.00,,---,0.00,VWS V14.01,2013-03-26 17:22:00,
2013-03-26 12:27:00,49.1,27.6,30.34,NNW,344,5.0,13.0,43,0.00,,---,0.00,VWS V14.01,2013-03-26 17:27:00,
2013-03-26 12:30:00,50.7,27.3,30.31,NNW,343,0.0,17.0,40,0.00,,---,0.00,VWS V14.01,2013-03-26 17:30:00,
2013-03-26 12:32:00,49.5,26.2,30.34,North,350,5.0,11.0,40,0.00,,---,0.00,VWS V14.01,2013-03-26 17:32:00,
2013-03-26 12:37:00,49.4,22.9,30.34,NNW,340,1.0,11.0,35,0.00,,---,0.00,VWS V14.01,2013-03-26 17:37:00,
2013-03-26 12:42:00,49.2,24.7,30.34,NNW,333,0.0,11.0,38,0.00,,---,0.00,VWS V14.01,2013-03-26 17:42:00,
2013-03-26 12:45:00,51.3,27.2,30.31,West,269,10.0,15.0,39,0.00,,---,0.00,VWS V14.01,2013-03-26 17:45:00,
2013-03-26 12:47:00,50.1,24.9,30.33,West,279,2.0,12.0,37,0.00,,---,0.00,VWS V14.01,2013-03-26 17:47:00,
2013-03-26 12:52:00,50.1,25.5,30.33,NNE,28,5.0,12.0,38,0.00,,---,0.00,VWS V14.01,2013-03-26 17:52:00,
2013-03-26 12:57:00,50.4,25.8,30.33,NNW,328,5.0,12.0,38,0.00,,---,0.00,VWS V14.01,2013-03-26 17:57:00,
2013-03-26 13:00:00,51.9,28.4,30.30,NNE,13,5.0,12.0,40,0.00,,---,0.00,VWS V14.01,2013-03-26 18:00:00,
2013-03-26 13:02:00,50.2,27.4,30.33,NNW,344,5.0,11.0,41,0.00,,---,0.00,VWS V14.01,2013-03-26 18:02:00,
2013-03-26 13:07:00,50.5,24.6,30.33,NE,42,9.0,15.0,36,0.00,,---,0.00,VWS V14.01,2013-03-26 18:07:00,
2013-03-26 13:12:00,50.1,22.8,30.33,NNE,28,7.0,15.0,34,0.00,,---,0.00,VWS V14.01,2013-03-26 18:12:00,
2013-03-26 13:15:00,52.0,25.2,30.30,NW,322,5.0,13.0,35,0.00,,---,0.00,VWS V14.01,2013-03-26 18:15:00,
2013-03-26 13:17:00,50.2,24.3,30.32,NE,38,6.0,11.0,36,0.00,,---,0.00,VWS V14.01,2013-03-26 18:17:00,
2013-03-26 13:23:00,50.4,23.8,30.32,NE,49,6.0,17.0,35,0.00,,---,0.00,VWS V14.01,2013-03-26 18:23:00,
2013-03-26 13:28:00,50.5,27.1,30.32,North,355,4.0,17.0,40,0.00,,---,0.00,VWS V14.01,2013-03-26 18:28:00,
2013-03-26 13:30:00,52.6,27.7,30.29,WNW,286,6.0,19.0,38,0.00,,---,0.00,VWS V14.01,2013-03-26 18:30:00,
2013-03-26 13:33:00,51.1,25.1,30.31,North,360,11.0,15.0,36,0.00,,---,0.00,VWS V14.01,2013-03-26 18:33:00,
2013-03-26 13:38:00,51.3,26.6,30.31,NE,49,3.0,15.0,38,0.00,,---,0.00,VWS V14.01,2013-03-26 18:38:00,
2013-03-26 13:43:00,51.1,25.1,30.31,West,278,4.0,15.0,36,0.00,,---,0.00,VWS V14.01,2013-03-26 18:43:00,
2013-03-26 13:45:00,52.6,23.6,30.29,NNW,329,5.0,17.0,32,0.00,,---,0.00,VWS V14.01,2013-03-26 18:45:00,
2013-03-26 13:48:00,50.7,23.4,30.31,West,263,5.0,10.0,34,0.00,,---,0.00,VWS V14.01,2013-03-26 18:48:00,
2013-03-26 13:53:00,51.0,26.3,30.31,NW,321,5.0,11.0,38,0.00,,---,0.00,VWS V14.01,2013-03-26 18:53:00,
2013-03-26 13:58:00,51.9,25.8,30.30,North,11,2.0,12.0,36,0.00,,---,0.00,VWS V14.01,2013-03-26 18:58:00,
2013-03-26 14:00:00,53.1,24.8,30.28,North,5,4.0,19.0,33,0.00,,---,0.00,VWS V14.01,2013-03-26 19:00:00,
2013-03-26 14:03:00,52.2,25.4,30.30,WNW,290,2.0,13.0,35,0.00,,---,0.00,VWS V14.01,2013-03-26 19:03:00,
2013-03-26 14:09:00,52.2,24.7,30.30,WNW,289,4.0,13.0,34,0.00,,---,0.00,VWS V14.01,2013-03-26 19:09:00,
2013-03-26 14:14:00,52.0,25.2,30.30,WNW,286,3.0,13.0,35,0.00,,---,0.00,VWS V14.01,2013-03-26 19:14:00,
2013-03-26 14:15:00,53.2,24.9,30.28,NW,315,5.0,14.0,33,0.00,,---,0.00,VWS V14.01,2013-03-26 19:15:00,
2013-03-26 14:19:00,52.3,27.5,30.30,WNW,294,5.0,19.0,38,0.00,,---,0.00,VWS V14.01,2013-03-26 19:19:00,
2013-03-26 14:24:00,52.2,24.0,30.30,North,360,11.0,19.0,33,0.00,,---,0.00,VWS V14.01,2013-03-26 19:24:00,
2013-03-26 14:29:00,52.6,27.7,30.29,WNW,286,6.0,19.0,38,0.00,,---,0.00,VWS V14.01,2013-03-26 19:29:00,
2013-03-26 14:30:00,53.5,23.6,30.27,NNE,21,8.0,17.0,31,0.00,,---,0.00,VWS V14.01,2013-03-26 19:30:00,
2013-03-26 14:34:00,52.8,23.8,30.29,North,5,13.0,14.0,32,0.00,,---,0.00,VWS V14.01,2013-03-26 19:34:00,
2013-03-26 14:39:00,52.8,25.2,30.29,North,5,9.0,17.0,34,0.00,,---,0.00,VWS V14.01,2013-03-26 19:39:00,
2013-03-26 14:44:00,52.6,22.1,30.29,North,5,4.0,7.0,30,0.00,,---,0.00,VWS V14.01,2013-03-26 19:44:00,
2013-03-26 14:45:00,53.2,24.9,30.27,NNW,339,9.0,16.0,33,0.00,,---,0.00,VWS V14.01,2013-03-26 19:45:00,
2013-03-26 14:49:00,52.8,22.2,30.29,NNW,343,8.0,18.0,30,0.00,,---,0.00,VWS V14.01,2013-03-26 19:49:00,
2013-03-26 14:54:00,52.8,23.0,30.29,NNE,24,5.0,18.0,31,0.00,,---,0.00,VWS V14.01,2013-03-26 19:54:00,
2013-03-26 14:59:00,53.1,24.8,30.28,NNE,17,9.0,9.0,33,0.00,,---,0.00,VWS V14.01,2013-03-26 19:59:00,
2013-03-26 15:00:00,53.5,22.0,30.27,NNW,339,1.0,17.0,29,0.00,,---,0.00,VWS V14.01,2013-03-26 20:00:00,
2013-03-26 15:04:00,53.2,24.1,30.28,NNW,330,5.0,14.0,32,0.00,,---,0.00,VWS V14.01,2013-03-26 20:04:00,
2013-03-26 15:09:00,53.1,26.9,30.28,NNW,342,4.0,14.0,36,0.00,,---,0.00,VWS V14.01,2013-03-26 20:09:00,
2013-03-26 15:14:00,53.2,25.6,30.28,NNW,327,10.0,10.0,34,0.00,,---,0.00,VWS V14.01,2013-03-26 20:14:00,
2013-03-26 15:15:00,53.6,25.2,30.26,North,349,11.0,15.0,33,0.00,,---,0.00,VWS V14.01,2013-03-26 20:15:00,
2013-03-26 15:19:00,53.2,24.1,30.28,North,5,13.0,15.0,32,0.00,,---,0.00,VWS V14.01,2013-03-26 20:19:00,
2013-03-26 15:24:00,53.3,22.7,30.28,NNE,14,6.0,17.0,30,0.00,,---,0.00,VWS V14.01,2013-03-26 20:24:00,
2013-03-26 15:29:00,53.5,23.6,30.27,North,10,13.0,14.0,31,0.00,,---,0.00,VWS V14.01,2013-03-26 20:29:00,
2013-03-26 15:30:00,53.9,24.0,30.26,NE,39,8.0,17.0,31,0.00,,---,0.00,VWS V14.01,2013-03-26 20:30:00,
2013-03-26 15:35:00,53.5,27.2,30.27,North,349,12.0,16.0,36,0.00,,---,0.00,VWS V14.01,2013-03-26 20:35:00,
2013-03-26 15:40:00,53.2,23.4,30.27,NNE,22,6.0,16.0,31,0.00,,---,0.00,VWS V14.01,2013-03-26 20:40:00,
2013-03-26 15:45:00,53.2,22.6,30.27,NW,315,4.0,10.0,30,0.00,,---,0.00,VWS V14.01,2013-03-26 20:45:00,
2013-03-26 15:50:00,53.3,26.4,30.27,NE,40,7.0,13.0,35,0.00,,---,0.00,VWS V14.01,2013-03-26 20:50:00,
2013-03-26 15:55:00,53.5,22.0,30.27,ENE,57,13.0,17.0,29,0.00,,---,0.00,VWS V14.01,2013-03-26 20:55:00,
2013-03-26 16:00:00,53.5,22.0,30.27,NE,34,5.0,6.0,29,0.00,,---,0.00,VWS V14.01,2013-03-26 21:00:00,
2013-03-26 16:05:00,53.8,25.4,30.27,North,355,3.0,12.0,33,0.00,,---,0.00,VWS V14.01,2013-03-26 21:05:00,
2013-03-26 16:10:00,53.8,23.9,30.27,NE,52,7.0,15.0,31,0.00,,---,0.00,VWS V14.01,2013-03-26 21:10:00,
2013-03-26 16:15:00,53.8,26.1,30.26,North,355,6.0,11.0,34,0.00,,---,0.00,VWS V14.01,2013-03-26 21:15:00,
2013-03-26 16:20:00,54.2,25.7,30.26,North,5,4.0,15.0,33,0.00,,---,0.00,VWS V14.01,2013-03-26 21:20:00,
2013-03-26 16:25:00,54.1,22.6,30.26,NNW,334,16.0,16.0,29,0.00,,---,0.00,VWS V14.01,2013-03-26 21:25:00,
2013-03-26 16:30:00,53.9,24.7,30.26,NE,52,11.0,15.0,32,0.00,,---,0.00,VWS V14.01,2013-03-26 21:30:00,
2013-03-26 16:35:00,53.8,23.9,30.26,North,360,6.0,15.0,31,0.00,,---,0.00,VWS V14.01,2013-03-26 21:35:00,
2013-03-26 16:40:00,54.1,24.2,30.26,NW,317,6.0,15.0,31,0.00,,---,0.00,VWS V14.01,2013-03-26 21:40:00,
2013-03-26 16:45:00,53.8,22.3,30.26,NE,38,10.0,19.0,29,0.00,,---,0.00,VWS V14.01,2013-03-26 21:45:00,
2013-03-26 16:50:00,53.6,22.1,30.26,North,350,7.0,19.0,29,0.00,,---,0.00,VWS V14.01,2013-03-26 21:50:00,
2013-03-26 16:55:00,53.6,22.9,30.26,NNE,17,5.0,19.0,30,0.00,,---,0.00,VWS V14.01,2013-03-26 21:55:00,
2013-03-26 17:00:00,53.6,23.7,30.26,NW,321,7.0,12.0,31,0.00,,---,0.00,VWS V14.01,2013-03-26 22:00:00,
2013-03-26 17:05:00,53.3,21.9,30.26,NW,321,4.0,12.0,29,0.00,,---,0.00,VWS V14.01,2013-03-26 22:05:00,
2013-03-26 17:11:00,53.2,24.1,30.26,NNW,343,6.0,14.0,32,0.00,,---,0.00,VWS V14.01,2013-03-26 22:11:00,
2013-03-26 17:15:00,52.6,25.0,30.26,North,355,2.0,13.0,34,0.00,,---,0.00,VWS V14.01,2013-03-26 22:15:00,
2013-03-26 17:16:00,53.3,25.0,30.26,North,5,10.0,12.0,33,0.00,,---,0.00,VWS V14.01,2013-03-26 22:16:00,
2013-03-26 17:21:00,53.3,23.5,30.26,NNE,17,5.0,14.0,31,0.00,,---,0.00,VWS V14.01,2013-03-26 22:21:00,
2013-03-26 17:26:00,53.1,24.0,30.26,North,5,6.0,15.0,32,0.00,,---,0.00,VWS V14.01,2013-03-26 22:26:00,
2013-03-26 17:30:00,52.0,25.2,30.26,North,9,5.0,15.0,35,0.00,,---,0.00,VWS V14.01,2013-03-26 22:30:00,
2013-03-26 17:31:00,52.9,22.3,30.26,NW,313,4.0,11.0,30,0.00,,---,0.00,VWS V14.01,2013-03-26 22:31:00,
2013-03-26 17:37:00,52.8,23.0,30.26,North,5,9.0,11.0,31,0.00,,---,0.00,VWS V14.01,2013-03-26 22:37:00,
2013-03-26 17:42:00,52.8,23.8,30.26,NNW,342,4.0,13.0,32,0.00,,---,0.00,VWS V14.01,2013-03-26 22:42:00,
2013-03-26 17:45:00,51.0,25.0,30.27,NNW,329,3.0,11.0,36,0.00,,---,0.00,VWS V14.01,2013-03-26 22:45:00,
2013-03-26 17:47:00,52.8,24.5,30.25,NW,324,4.0,10.0,33,0.00,,---,0.00,VWS V14.01,2013-03-26 22:47:00,
2013-03-26 17:52:00,52.6,23.6,30.25,NNW,346,6.0,10.0,32,0.00,,---,0.00,VWS V14.01,2013-03-26 22:52:00,
2013-03-26 17:57:00,52.5,22.8,30.25,NE,46,2.0,12.0,31,0.00,,---,0.00,VWS V14.01,2013-03-26 22:57:00,
2013-03-26 18:00:00,50.2,25.0,30.27,North,10,5.0,13.0,37,0.00,,---,0.00,VWS V14.01,2013-03-26 23:00:00,
2013-03-26 18:02:00,52.6,24.3,30.25,NNE,25,7.0,13.0,33,0.00,,---,0.00,VWS V14.01,2013-03-26 23:02:00,
2013-03-26 18:07:00,52.6,25.0,30.25,NE,41,4.0,13.0,34,0.00,,---,0.00,VWS V14.01,2013-03-26 23:07:00,
2013-03-26 18:12:00,52.6,24.3,30.25,NW,326,3.0,13.0,33,0.00,,---,0.00,VWS V14.01,2013-03-26 23:12:00,
2013-03-26 18:15:00,49.4,26.1,30.27,NNE,13,0.0,10.0,40,0.00,,---,0.00,VWS V14.01,2013-03-26 23:15:00,
2013-03-26 18:17:00,52.6,24.3,30.26,NNE,26,5.0,9.0,33,0.00,,---,0.00,VWS V14.01,2013-03-26 23:17:00,
2013-03-26 18:22:00,52.3,24.1,30.26,NNE,28,4.0,15.0,33,0.00,,---,0.00,VWS V14.01,2013-03-26 23:22:00,
2013-03-26 18:27:00,52.0,25.2,30.26,North,9,10.0,15.0,35,0.00,,---,0.00,VWS V14.01,2013-03-26 23:27:00,
2013-03-26 18:30:00,48.2,26.2,30.28,NNE,19,0.0,6.0,42,0.00,,---,0.00,VWS V14.01,2013-03-26 23:30:00,
2013-03-26 18:32:00,51.9,25.8,30.26,NNE,15,4.0,6.0,36,0.00,,---,0.00,VWS V14.01,2013-03-26 23:32:00,
2013-03-26 18:37:00,51.4,25.4,30.26,North,350,5.0,7.0,36,0.00,,---,0.00,VWS V14.01,2013-03-26 23:37:00,
2013-03-26 18:43:00,51.1,25.8,30.26,North,355,3.0,11.0,37,0.00,,---,0.00,VWS V14.01,2013-03-26 23:43:00,
2013-03-26 18:45:00,47.3,26.5,30.28,North,11,1.0,7.0,44,0.00,,---,0.00,VWS V14.01,2013-03-26 23:45:00,
2013-03-26 18:48:00,50.8,25.5,30.27,North,355,4.0,6.0,37,0.00,,---,0.00,VWS V14.01,2013-03-26 23:48:00,
2013-03-26 18:53:00,50.5,25.2,30.27,NNW,344,4.0,11.0,37,0.00,,---,0.00,VWS V14.01,2013-03-26 23:53:00,
2013-03-26 18:58:00,50.2,25.6,30.27,NW,306,6.0,13.0,38,0.00,,---,0.00,VWS V14.01,2013-03-26 23:58:00,
2013-03-26 19:00:00,46.4,26.2,30.28,NNE,14,2.0,4.0,45,0.00,,---,0.00,VWS V14.01,2013-03-27 00:00:00,
2013-03-26 19:03:00,49.9,25.3,30.27,NNE,15,2.0,6.0,38,0.00,,---,0.00,VWS V14.01,2013-03-27 00:03:00,
2013-03-26 19:08:00,49.6,25.7,30.27,North,9,7.0,7.0,39,0.00,,---,0.00,VWS V14.01,2013-03-27 00:08:00,
2013-03-26 19:13:00,49.4,26.1,30.27,NNE,13,0.0,10.0,40,0.00,,---,0.00,VWS V14.01,2013-03-27 00:13:00,
2013-03-26 19:15:00,45.5,26.5,30.28,NNE,14,0.0,4.0,47,0.00,,---,0.00,VWS V14.01,2013-03-27 00:15:00,
2013-03-26 19:18:00,49.1,26.4,30.27,North,5,3.0,3.0,41,0.00,,---,0.00,VWS V14.01,2013-03-27 00:18:00,
2013-03-26 19:23:00,48.6,26.6,30.27,North,9,1.0,5.0,42,0.00,,---,0.00,VWS V14.01,2013-03-27 00:23:00,
2013-03-26 19:28:00,48.2,26.2,30.28,NNE,19,2.0,6.0,42,0.00,,---,0.00,VWS V14.01,2013-03-27 00:28:00,
2013-03-26 19:30:00,44.8,26.3,30.29,NNE,18,0.0,4.0,48,0.00,,---,0.00,VWS V14.01,2013-03-27 00:30:00,
2013-03-26 19:34:00,47.9,26.5,30.28,North,350,2.0,7.0,43,0.00,,---,0.00,VWS V14.01,2013-03-27 00:34:00,
2013-03-26 19:39:00,47.6,26.8,30.28,NNE,12,2.0,7.0,44,0.00,,---,0.00,VWS V14.01,2013-03-27 00:39:00,
2013-03-26 19:44:00,47.3,26.5,30.28,North,11,1.0,7.0,44,0.00,,---,0.00,VWS V14.01,2013-03-27 00:44:00,
2013-03-26 19:45:00,44.2,27.2,30.29,NNE,17,0.0,2.0,51,0.00,,---,0.00,VWS V14.01,2013-03-27 00:45:00,
2013-03-26 19:49:00,47.0,26.8,30.28,North,11,0.0,2.0,45,0.00,,---,0.00,VWS V14.01,2013-03-27 00:49:00,
2013-03-26 19:54:00,46.5,25.8,30.28,NNE,19,2.0,4.0,44,0.00,,---,0.00,VWS V14.01,2013-03-27 00:54:00,
2013-03-26 19:59:00,46.4,26.2,30.28,NNE,14,2.0,4.0,45,0.00,,---,0.00,VWS V14.01,2013-03-27 00:59:00,
2013-03-26 20:00:00,42.9,29.6,30.30,NNE,17,0.0,1.0,59,0.00,,---,0.00,VWS V14.01,2013-03-27 01:00:00,
2013-03-26 20:04:00,46.1,27.0,30.28,NNE,14,2.0,2.0,47,0.00,,---,0.00,VWS V14.01,2013-03-27 01:04:00,
2013-03-26 20:09:00,45.7,26.1,30.28,NNE,14,0.0,3.0,46,0.00,,---,0.00,VWS V14.01,2013-03-27 01:09:00,
2013-03-26 20:14:00,45.4,26.4,30.28,NNE,14,0.0,1.0,47,0.00,,---,0.00,VWS V14.01,2013-03-27 01:14:00,
2013-03-26 20:15:00,41.6,30.7,30.30,NNE,17,0.0,1.0,65,0.00,,---,0.00,VWS V14.01,2013-03-27 01:15:00,
2013-03-26 20:19:00,45.2,26.7,30.28,North,5,0.0,4.0,48,0.00,,---,0.00,VWS V14.01,2013-03-27 01:19:00,
2013-03-26 20:24:00,45.1,26.6,30.28,NNE,18,0.0,4.0,48,0.00,,---,0.00,VWS V14.01,2013-03-27 01:24:00,
2013-03-26 20:29:00,44.8,26.3,30.29,NNE,17,2.0,2.0,48,0.00,,---,0.00,VWS V14.01,2013-03-27 01:29:00,
2013-03-26 20:30:00,40.5,30.8,30.30,NNE,17,0.0,0.0,68,0.00,,---,0.00,VWS V14.01,2013-03-27 01:30:00,
2013-03-26 20:34:00,44.6,26.1,30.29,NNE,17,0.0,2.0,48,0.00,,---,0.00,VWS V14.01,2013-03-27 01:34:00,
2013-03-26 20:39:00,44.5,27.0,30.29,NNE,17,0.0,2.0,50,0.00,,---,0.00,VWS V14.01,2013-03-27 01:39:00,
2013-03-26 20:44:00,44.2,28.2,30.29,NNE,17,0.0,0.0,53,0.00,,---,0.00,VWS V14.01,2013-03-27 01:44:00,
2013-03-26 20:45:00,39.6,30.3,30.31,NNE,17,0.0,0.0,69,0.00,,---,0.00,VWS V14.01,2013-03-27 01:45:00,
2013-03-26 20:49:00,43.8,29.6,30.29,NNE,17,0.0,1.0,57,0.00,,---,0.00,VWS V14.01,2013-03-27 01:49:00,
2013-03-26 20:55:00,43.3,29.5,30.29,NNE,17,0.0,1.0,58,0.00,,---,0.00,VWS V14.01,2013-03-27 01:55:00,
2013-03-26 21:00:00,42.9,30.0,30.30,NNE,17,0.0,0.0,60,0.00,,---,0.00,VWS V14.01,2013-03-27 02:00:00,
2013-03-26 21:05:00,42.5,30.0,30.30,NNE,17,0.0,1.0,61,0.00,,---,0.00,VWS V14.01,2013-03-27 02:05:00,
2013-03-26 21:10:00,42.1,30.0,30.30,NNE,17,0.0,1.0,62,0.00,,---,0.00,VWS V14.01,2013-03-27 02:10:00,
2013-03-26 21:15:00,41.6,31.1,30.30,NNE,17,0.0,0.0,66,0.00,,---,0.00,VWS V14.01,2013-03-27 02:15:00,
2013-03-26 21:20:00,41.2,31.8,30.30,NNE,17,0.0,0.0,69,0.00,,---,0.00,VWS V14.01,2013-03-27 02:20:00,
2013-03-26 21:25:00,40.8,31.4,30.30,NNE,17,0.0,0.0,69,0.00,,---,0.00,VWS V14.01,2013-03-27 02:25:00,
2013-03-26 21:30:00,40.5,30.8,30.30,NNE,17,0.0,0.0,68,0.00,,---,0.00,VWS V14.01,2013-03-27 02:30:00,
2013-03-26 21:35:00,40.1,30.0,30.30,NNE,17,0.0,0.0,67,0.00,,---,0.00,VWS V14.01,2013-03-27 02:35:00,
2013-03-26 21:40:00,39.8,30.1,30.30,NNE,17,0.0,0.0,68,0.00,,---,0.00,VWS V14.01,2013-03-27 02:40:00,
2013-03-26 21:45:00,39.6,30.6,30.31,NNE,17,0.0,0.0,70,0.00,,---,0.00,VWS V14.01,2013-03-27 02:45:00,
2013-03-26 21:50:00,39.5,31.2,30.31,NNE,17,0.0,0.0,72,0.00,,---,0.00,VWS V14.01,2013-03-27 02:50:00,
2013-03-26 21:55:00,39.2,31.3,30.31,NNE,17,0.0,0.0,73,0.00,,---,0.00,VWS V14.01,2013-03-27 02:55:00,
2013-03-26 22:00:00,38.9,31.0,30.32,NNE,17,0.0,0.0,73,0.00,,---,0.00,VWS V14.01,2013-03-27 03:00:00,
2013-03-26 22:01:00,39.2,29.5,30.33,ENE,73,0.0,1.0,68,0.00,,---,0.00,VWS V14.01,2013-03-27 03:01:00,
2013-03-26 22:02:00,39.2,29.5,30.33,ENE,73,0.0,1.0,68,0.00,,---,0.00,VWS V14.01,2013-03-27 03:02:00,
2013-03-26 22:03:00,39.2,29.5,30.33,ENE,74,0.0,1.0,68,0.00,,---,0.00,VWS V14.01,2013-03-27 03:03:00,
2013-03-26 22:04:00,39.2,29.5,30.33,ENE,73,0.0,1.0,68,0.00,,---,0.00,VWS V14.01,2013-03-27 03:04:00,
2013-03-26 22:05:00,38.8,31.2,30.32,NNE,31,0.0,3.0,74,0.00,,---,0.00,VWS V14.01,2013-03-27 03:05:00,
2013-03-26 22:06:00,39.2,29.9,30.33,ENE,73,0.0,1.0,69,0.00,,---,0.00,VWS V14.01,2013-03-27 03:06:00,
2013-03-26 22:07:00,39.2,29.9,30.33,ENE,73,0.0,1.0,69,0.00,,---,0.00,VWS V14.01,2013-03-27 03:07:00,
2013-03-26 22:08:00,39.2,29.9,30.33,ENE,73,0.0,1.0,69,0.00,,---,0.00,VWS V14.01,2013-03-27 03:08:00,
2013-03-26 22:09:00,39.1,29.8,30.33,ENE,73,0.0,1.0,69,0.00,,---,0.00,VWS V14.01,2013-03-27 03:09:00,
2013-03-26 22:10:00,38.5,31.0,30.32,NNE,31,0.0,3.0,74,0.00,,---,0.00,VWS V14.01,2013-03-27 03:10:00,
2013-03-26 22:11:00,39.1,29.8,30.33,ENE,73,0.0,1.0,69,0.00,,---,0.00,VWS V14.01,2013-03-27 03:11:00,
2013-03-26 22:12:00,39.1,29.8,30.33,ENE,73,0.0,1.0,69,0.00,,---,0.00,VWS V14.01,2013-03-27 03:12:00,
2013-03-26 22:13:00,38.9,29.6,30.33,ENE,73,1.0,1.0,69,0.00,,---,0.00,VWS V14.01,2013-03-27 03:13:00,
2013-03-26 22:14:00,38.9,29.6,30.33,ENE,73,0.0,1.0,69,0.00,,---,0.00,VWS V14.01,2013-03-27 03:14:00,
2013-03-26 22:15:00,38.3,31.1,30.32,NNE,31,0.0,0.0,75,0.00,,---,0.00,VWS V14.01,2013-03-27 03:15:00,
2013-03-26 22:16:00,38.9,29.6,30.33,ENE,73,0.0,0.0,69,0.00,,---,0.00,VWS V14.01,2013-03-27 03:16:00,
2013-03-26 22:17:00,38.8,29.5,30.33,ENE,77,0.0,3.0,69,0.00,,---,0.00,VWS V14.01,2013-03-27 03:17:00,
2013-03-26 22:18:00,38.8,29.5,30.33,ENE,77,0.0,3.0,69,0.00,,---,0.00,VWS V14.01,2013-03-27 03:18:00,
2013-03-26 22:19:00,38.8,29.5,30.33,ENE,77,0.0,3.0,69,0.00,,---,0.00,VWS V14.01,2013-03-27 03:19:00,
2013-03-26 22:20:00,38.2,31.0,30.32,ENE,61,0.0,4.0,75,0.00,,---,0.00,VWS V14.01,2013-03-27 03:20:00,
2013-03-26 22:25:00,38.3,30.8,30.32,NE,53,1.0,4.0,74,0.00,,---,0.00,VWS V14.01,2013-03-27 03:25:00,
2013-03-26 22:30:00,38.6,30.7,30.32,ENE,59,0.0,2.0,73,0.00,,---,0.00,VWS V14.01,2013-03-27 03:30:00,
2013-03-26 22:35:00,38.8,30.2,30.32,ENE,60,0.0,2.0,71,0.00,,---,0.00,VWS V14.01,2013-03-27 03:35:00,
2013-03-26 22:41:00,38.9,30.3,30.32,ENE,60,0.0,2.0,71,0.00,,---,0.00,VWS V14.01,2013-03-27 03:41:00,
2013-03-26 22:45:00,38.0,30.8,30.33,ENE,77,0.0,5.0,75,0.00,,---,0.00,VWS V14.01,2013-03-27 03:45:00,
2013-03-26 22:46:00,38.9,30.0,30.32,East,80,0.0,3.0,70,0.00,,---,0.00,VWS V14.01,2013-03-27 03:46:00,
2013-03-26 22:51:00,39.1,29.8,30.32,East,98,0.0,4.0,69,0.00,,---,0.00,VWS V14.01,2013-03-27 03:51:00,
2013-03-26 22:56:00,39.2,29.9,30.32,East,98,0.0,4.0,69,0.00,,---,0.00,VWS V14.01,2013-03-27 03:56:00,
2013-03-26 23:00:00,37.8,30.3,30.32,ENE,76,0.0,3.0,74,0.00,,---,0.00,VWS V14.01,2013-03-27 04:00:00,
2013-03-26 23:10:00,39.1,29.8,30.33,ENE,73,0.0,1.0,69,0.00,,---,0.00,VWS V14.01,2013-03-27 04:10:00,
2013-03-26 23:15:00,38.8,29.5,30.33,ENE,77,3.0,3.0,69,0.00,,---,0.00,VWS V14.01,2013-03-27 04:15:00,
2013-03-26 23:20:00,38.6,29.7,30.33,ENE,77,0.0,3.0,70,0.00,,---,0.00,VWS V14.01,2013-03-27 04:20:00,
2013-03-26 23:25:00,38.8,31.2,30.33,ENE,77,0.0,3.0,74,0.00,,---,0.00,VWS V14.01,2013-03-27 04:25:00,
2013-03-26 23:30:00,37.0,30.5,30.32,East,80,0.0,3.0,77,0.00,,---,0.00,VWS V14.01,2013-03-27 04:30:00,
2013-03-26 23:31:00,38.6,31.0,30.33,ENE,77,0.0,0.0,74,0.00,,---,0.00,VWS V14.01,2013-03-27 04:31:00,
2013-03-26 23:36:00,38.5,31.3,30.33,ENE,77,0.0,1.0,75,0.00,,---,0.00,VWS V14.01,2013-03-27 04:36:00,
2013-03-26 23:41:00,38.2,30.7,30.33,ENE,77,0.0,5.0,74,0.00,,---,0.00,VWS V14.01,2013-03-27 04:41:00,
2013-03-26 23:45:00,36.9,30.0,30.32,East,100,2.0,4.0,76,0.00,,---,0.00,VWS V14.01,2013-03-27 04:45:00,
2013-03-26 23:46:00,38.0,30.8,30.33,ENE,77,0.0,2.0,75,0.00,,---,0.00,VWS V14.01,2013-03-27 04:46:00,
2013-03-26 23:51:00,37.9,30.7,30.33,ENE,77,0.0,3.0,75,0.00,,---,0.00,VWS V14.01,2013-03-27 04:51:00,
2013-03-26 23:56:00,37.8,30.3,30.33,ENE,76,0.0,3.0,74,0.00,,---,0.00,VWS V14.01,2013-03-27 04:56:00,